Time,TemperatureF,DewpointF,PressureIn,WindDirection,WindDirectionDegrees,WindSpeedMPH,WindSpeedGustMPH,Humidity,HourlyPrecipIn,Conditions,Clouds,dailyrainin,SoftwareType,DateUTC
2013-10-29 00:01:00,41.7,36.6,30.27,NW,318,0.0,0.0,82,0.00,,,0.00,Wunderground v.1.15,2013-10-29 04:01:00,
2013-10-29 00:03:00,41.7,36.9,30.27,NW,318,0.0,0.0,83,0.00,,,0.00,Wunderground v.1.15,2013-10-29 04:03:00,
2013-10-29 00:07:00,41.7,36.9,30.26,NW,318,0.0,0.0,83,0.00,,,0.00,Wunderground v.1.15,2013-10-29 04:07:00,
2013-10-29 00:11:00,41.7,36.9,30.26,NW,318,0.0,0.0,83,0.00,,,0.00,Wunderground v.1.15,2013-10-29 04:11:00,
2013-10-29 00:13:00,41.7,37.2,30.26,NW,318,0.0,0.0,84,0.00,,,0.00,Wunderground v.1.15,2013-10-29 04:13:00,
2013-10-29 00:19:00,41.7,37.2,30.26,NW,318,0.0,0.0,84,0.00,,,0.00,Wunderground v.1.15,2013-10-29 04:19:00,
2013-10-29 00:25:00,41.6,37.1,30.26,NW,318,0.0,0.0,84,0.00,,,0.00,Wunderground v.1.15,2013-10-29 04:25:00,
2013-10-29 00:31:00,41.5,37.3,30.26,NW,318,0.0,0.0,85,0.00,,,0.00,Wunderground v.1.15,2013-10-29 04:31:00,
2013-10-29 00:35:00,41.5,37.0,30.26,NW,318,0.0,0.0,84,0.00,,,0.00,Wunderground v.1.15,2013-10-29 04:35:00,
2013-10-29 00:41:00,41.3,37.1,30.26,NW,318,0.0,0.0,85,0.00,,,0.00,Wunderground v.1.15,2013-10-29 04:41:00,
2013-10-29 00:47:00,41.2,37.0,30.26,NW,318,0.0,0.0,85,0.00,,,0.00,Wunderground v.1.15,2013-10-29 04:47:00,
2013-10-29 00:53:00,41.0,36.8,30.26,NW,318,0.0,0.0,85,0.00,,,0.00,Wunderground v.1.15,2013-10-29 04:53:00,
2013-10-29 00:59:00,40.9,36.7,30.26,NW,318,0.0,0.0,85,0.00,,,0.00,Wunderground v.1.15,2013-10-29 04:59:00,
2013-10-29 01:05:00,40.7,36.8,30.26,NW,318,0.0,0.0,86,0.00,,,0.00,Wunderground v.1.15,2013-10-29 05:05:00,
2013-10-29 01:11:00,40.6,37.0,30.26,NW,318,0.0,0.0,87,0.00,,,0.00,Wunderground v.1.15,2013-10-29 05:11:00,
2013-10-29 01:17:00,40.5,36.9,30.26,NW,318,0.0,0.0,87,0.00,,,0.00,Wunderground v.1.15,2013-10-29 05:17:00,
2013-10-29 01:23:00,40.4,36.8,30.26,NW,318,0.0,0.0,87,0.00,,,0.00,Wunderground v.1.15,2013-10-29 05:23:00,
2013-10-29 01:29:00,40.3,36.7,30.26,NW,318,0.0,0.0,87,0.00,,,0.00,Wunderground v.1.15,2013-10-29 05:29:00,
2013-10-29 01:35:00,40.1,36.5,30.26,NW,318,0.0,0.0,87,0.00,,,0.00,Wunderground v.1.15,2013-10-29 05:35:00,
2013-10-29 01:41:00,39.8,36.2,30.25,NW,318,0.0,0.0,87,0.00,,,0.00,Wunderground v.1.15,2013-10-29 05:41:00,
2013-10-29 01:47:00,39.8,36.5,30.25,NW,318,0.0,0.0,88,0.00,,,0.00,Wunderground v.1.15,2013-10-29 05:47:00,
2013-10-29 01:53:00,39.9,36.6,30.26,NW,318,0.0,0.0,88,0.00,,,0.00,Wunderground v.1.15,2013-10-29 05:53:00,
2013-10-29 01:59:00,40.2,36.9,30.26,NW,318,0.0,0.0,88,0.00,,,0.00,Wunderground v.1.15,2013-10-29 05:59:00,
2013-10-29 02:05:00,40.5,37.2,30.26,NW,318,0.0,0.0,88,0.00,,,0.00,Wunderground v.1.15,2013-10-29 06:05:00,
2013-10-29 02:11:00,40.7,37.1,30.26,NW,318,0.0,0.0,87,0.00,,,0.00,Wunderground v.1.15,2013-10-29 06:11:00,
2013-10-29 02:17:00,41.0,37.1,30.26,NW,318,0.0,0.0,86,0.00,,,0.00,Wunderground v.1.15,2013-10-29 06:17:00,
2013-10-29 02:23:00,41.3,37.1,30.26,NW,318,0.0,0.0,85,0.00,,,0.00,Wunderground v.1.15,2013-10-29 06:23:00,
2013-10-29 02:29:00,41.4,37.2,30.26,NW,318,0.0,0.0,85,0.00,,,0.00,Wunderground v.1.15,2013-10-29 06:29:00,
2013-10-29 02:35:00,41.5,37.3,30.26,NW,318,0.0,0.0,85,0.00,,,0.00,Wunderground v.1.15,2013-10-29 06:35:00,
2013-10-29 02:41:00,41.5,37.3,30.26,NW,318,0.0,0.0,85,0.00,,,0.00,Wunderground v.1.15,2013-10-29 06:41:00,
2013-10-29 02:47:00,41.5,37.3,30.26,NW,318,0.0,0.0,85,0.00,,,0.00,Wunderground v.1.15,2013-10-29 06:47:00,
2013-10-29 02:53:00,41.6,37.1,30.26,NW,318,0.0,0.0,84,0.00,,,0.00,Wunderground v.1.15,2013-10-29 06:53:00,
2013-10-29 02:59:00,42.0,37.2,30.26,NW,318,0.0,0.0,83,0.00,,,0.00,Wunderground v.1.15,2013-10-29 06:59:00,
2013-10-29 03:05:00,42.2,37.1,30.26,NW,318,0.0,0.0,82,0.00,,,0.00,Wunderground v.1.15,2013-10-29 07:05:00,
2013-10-29 03:11:00,42.4,37.0,30.26,NW,318,0.0,0.0,81,0.00,,,0.00,Wunderground v.1.15,2013-10-29 07:11:00,
2013-10-29 03:17:00,42.5,37.1,30.27,NW,318,0.0,0.0,81,0.00,,,0.00,Wunderground v.1.15,2013-10-29 07:17:00,
2013-10-29 03:23:00,42.7,37.0,30.26,NW,318,0.0,0.0,80,0.00,,,0.00,Wunderground v.1.15,2013-10-29 07:23:00,
2013-10-29 03:29:00,42.7,37.0,30.26,NW,318,0.0,0.0,80,0.00,,,0.00,Wunderground v.1.15,2013-10-29 07:29:00,
2013-10-29 03:35:00,42.7,37.0,30.26,NW,318,0.0,0.0,80,0.00,,,0.00,Wunderground v.1.15,2013-10-29 07:35:00,
2013-10-29 03:41:00,42.6,36.9,30.26,NW,318,0.0,0.0,80,0.00,,,0.00,Wunderground v.1.15,2013-10-29 07:41:00,
2013-10-29 03:47:00,42.5,36.8,30.27,NW,318,0.0,0.0,80,0.00,,,0.00,Wunderground v.1.15,2013-10-29 07:47:00,
2013-10-29 03:53:00,42.4,36.7,30.27,NW,318,0.0,0.0,80,0.00,,,0.00,Wunderground v.1.15,2013-10-29 07:53:00,
2013-10-29 03:59:00,42.4,37.0,30.27,NW,318,0.0,0.0,81,0.00,,,0.00,Wunderground v.1.15,2013-10-29 07:59:00,
2013-10-29 04:05:00,42.3,36.9,30.27,NW,318,0.0,0.0,81,0.00,,,0.00,Wunderground v.1.15,2013-10-29 08:05:00,
2013-10-29 04:11:00,42.3,36.9,30.27,NW,318,0.0,0.0,81,0.00,,,0.00,Wunderground v.1.15,2013-10-29 08:11:00,
2013-10-29 04:17:00,42.3,36.9,30.26,NW,318,0.0,0.0,81,0.00,,,0.00,Wunderground v.1.15,2013-10-29 08:17:00,
2013-10-29 04:23:00,42.1,36.7,30.26,NW,318,0.0,0.0,81,0.00,,,0.00,Wunderground v.1.15,2013-10-29 08:23:00,
2013-10-29 04:29:00,41.9,36.5,30.25,NW,318,0.0,0.0,81,0.00,,,0.00,Wunderground v.1.15,2013-10-29 08:29:00,
2013-10-29 04:35:00,41.8,36.7,30.25,NW,318,0.0,0.0,82,0.00,,,0.00,Wunderground v.1.15,2013-10-29 08:35:00,
2013-10-29 04:41:00,41.8,37.0,30.26,NW,318,0.0,0.0,83,0.00,,,0.00,Wunderground v.1.15,2013-10-29 08:41:00,
2013-10-29 04:47:00,41.8,37.0,30.26,NW,318,0.0,0.0,83,0.00,,,0.00,Wunderground v.1.15,2013-10-29 08:47:00,
2013-10-29 04:53:00,41.7,36.6,30.26,NW,318,0.0,0.0,82,0.00,,,0.00,Wunderground v.1.15,2013-10-29 08:53:00,
2013-10-29 04:59:00,41.7,36.6,30.26,NW,318,0.0,0.0,82,0.00,,,0.00,Wunderground v.1.15,2013-10-29 08:59:00,
2013-10-29 05:05:00,41.8,36.7,30.26,NW,318,0.0,0.0,82,0.00,,,0.00,Wunderground v.1.15,2013-10-29 09:05:00,
2013-10-29 05:11:00,41.6,36.8,30.26,NW,318,0.0,0.0,83,0.00,,,0.00,Wunderground v.1.15,2013-10-29 09:11:00,
2013-10-29 05:17:00,41.3,36.5,30.26,NW,318,0.0,0.0,83,0.00,,,0.00,Wunderground v.1.15,2013-10-29 09:17:00,
2013-10-29 05:23:00,41.3,36.5,30.26,NW,318,0.0,0.0,83,0.00,,,0.00,Wunderground v.1.15,2013-10-29 09:23:00,
2013-10-29 05:29:00,41.2,36.4,30.26,NW,318,0.0,0.0,83,0.00,,,0.00,Wunderground v.1.15,2013-10-29 09:29:00,
2013-10-29 05:35:00,41.2,36.4,30.26,NW,318,0.0,0.0,83,0.00,,,0.00,Wunderground v.1.15,2013-10-29 09:35:00,
2013-10-29 05:41:00,41.1,36.3,30.27,NW,318,0.0,0.0,83,0.00,,,0.00,Wunderground v.1.15,2013-10-29 09:41:00,
2013-10-29 05:47:00,41.1,36.6,30.27,NW,318,0.0,0.0,84,0.00,,,0.00,Wunderground v.1.15,2013-10-29 09:47:00,
2013-10-29 05:53:00,41.1,36.3,30.26,NW,318,0.0,0.0,83,0.00,,,0.00,Wunderground v.1.15,2013-10-29 09:53:00,
2013-10-29 05:59:00,40.8,36.3,30.26,NW,318,0.0,0.0,84,0.00,,,0.00,Wunderground v.1.15,2013-10-29 09:59:00,
2013-10-29 06:05:00,40.7,36.2,30.28,NW,318,0.0,0.0,84,0.00,,,0.00,Wunderground v.1.15,2013-10-29 10:05:00,
2013-10-29 06:11:00,40.8,36.3,30.27,NW,318,0.0,0.0,84,0.00,,,0.00,Wunderground v.1.15,2013-10-29 10:11:00,
2013-10-29 06:17:00,41.0,36.5,30.28,NW,318,0.0,0.0,84,0.00,,,0.00,Wunderground v.1.15,2013-10-29 10:17:00,
2013-10-29 06:23:00,41.1,36.6,30.28,NW,318,0.0,0.0,84,0.00,,,0.00,Wunderground v.1.15,2013-10-29 10:23:00,
2013-10-29 06:29:00,41.0,36.5,30.29,NW,318,0.0,0.0,84,0.00,,,0.00,Wunderground v.1.15,2013-10-29 10:29:00,
2013-10-29 06:35:00,40.9,36.4,30.28,NW,318,0.0,0.0,84,0.00,,,0.00,Wunderground v.1.15,2013-10-29 10:35:00,
2013-10-29 06:41:00,40.8,36.3,30.28,NW,318,0.0,0.0,84,0.00,,,0.00,Wunderground v.1.15,2013-10-29 10:41:00,
2013-10-29 06:47:00,40.9,36.4,30.28,NW,318,0.0,0.0,84,0.00,,,0.00,Wunderground v.1.15,2013-10-29 10:47:00,
2013-10-29 06:53:00,41.0,36.5,30.29,NW,318,0.0,0.0,84,0.00,,,0.00,Wunderground v.1.15,2013-10-29 10:53:00,
2013-10-29 06:59:00,41.3,36.5,30.28,NW,318,0.0,0.0,83,0.00,,,0.00,Wunderground v.1.15,2013-10-29 10:59:00,
2013-10-29 07:05:00,41.4,36.6,30.28,NW,318,0.0,0.0,83,0.00,,,0.00,Wunderground v.1.15,2013-10-29 11:05:00,
2013-10-29 07:11:00,41.4,36.6,30.28,NW,318,0.0,0.0,83,0.00,,,0.00,Wunderground v.1.15,2013-10-29 11:11:00,
2013-10-29 07:17:00,41.5,36.7,30.28,NW,318,0.0,1.0,83,0.00,,,0.00,Wunderground v.1.15,2013-10-29 11:17:00,
2013-10-29 07:23:00,41.6,36.8,30.29,NW,318,0.0,0.0,83,0.00,,,0.00,Wunderground v.1.15,2013-10-29 11:23:00,
2013-10-29 07:29:00,41.8,36.7,30.28,NW,318,0.0,0.0,82,0.00,,,0.00,Wunderground v.1.15,2013-10-29 11:29:00,
2013-10-29 07:35:00,41.9,36.8,30.28,NW,318,0.0,1.0,82,0.00,,,0.00,Wunderground v.1.15,2013-10-29 11:35:00,
2013-10-29 07:41:00,42.0,36.9,30.28,NW,318,1.0,1.0,82,0.00,,,0.00,Wunderground v.1.15,2013-10-29 11:41:00,
2013-10-29 07:47:00,42.1,37.0,30.28,NW,318,0.0,1.0,82,0.00,,,0.00,Wunderground v.1.15,2013-10-29 11:47:00,
2013-10-29 07:53:00,42.4,37.6,30.28,NW,322,0.0,1.0,83,0.00,,,0.00,Wunderground v.1.15,2013-10-29 11:53:00,
2013-10-29 07:59:00,42.6,37.8,30.28,North,5,1.0,2.0,83,0.00,,,0.00,Wunderground v.1.15,2013-10-29 11:59:00,
2013-10-29 08:05:00,42.7,38.2,30.28,NE,41,1.0,1.0,84,0.00,,,0.00,Wunderground v.1.15,2013-10-29 12:05:00,
2013-10-29 08:11:00,42.9,39.0,30.28,East,91,1.0,1.0,86,0.00,,,0.00,Wunderground v.1.15,2013-10-29 12:11:00,
2013-10-29 08:17:00,43.1,39.5,30.27,East,94,1.0,3.0,87,0.00,,,0.00,Wunderground v.1.15,2013-10-29 12:17:00,
2013-10-29 08:23:00,43.2,39.6,30.27,East,94,2.0,3.0,87,0.00,,,0.00,Wunderground v.1.15,2013-10-29 12:23:00,
2013-10-29 08:29:00,43.4,40.1,30.27,East,94,2.0,3.0,88,0.00,,,0.00,Wunderground v.1.15,2013-10-29 12:29:00,
2013-10-29 08:35:00,43.4,39.8,30.27,ESE,119,1.0,2.0,87,0.00,,,0.00,Wunderground v.1.15,2013-10-29 12:35:00,
2013-10-29 08:41:00,43.4,39.5,30.27,East,92,1.0,1.0,86,0.00,,,0.00,Wunderground v.1.15,2013-10-29 12:41:00,
2013-10-29 08:47:00,43.6,39.7,30.28,East,92,1.0,1.0,86,0.00,,,0.00,Wunderground v.1.15,2013-10-29 12:47:00,
2013-10-29 08:53:00,44.0,40.1,30.28,East,92,1.0,2.0,86,0.00,,,0.00,Wunderground v.1.15,2013-10-29 12:53:00,
2013-10-29 08:59:00,44.4,40.2,30.28,East,92,2.0,3.0,85,0.00,,,0.00,Wunderground v.1.15,2013-10-29 12:59:00,
2013-10-29 09:05:00,44.7,40.2,30.28,East,92,2.0,3.0,84,0.00,,,0.00,Wunderground v.1.15,2013-10-29 13:05:00,
2013-10-29 09:11:00,44.9,40.7,30.29,East,92,2.0,3.0,85,0.00,,,0.00,Wunderground v.1.15,2013-10-29 13:11:00,
2013-10-29 09:17:00,45.0,40.5,30.29,East,92,2.0,3.0,84,0.00,,,0.00,Wunderground v.1.15,2013-10-29 13:17:00,
2013-10-29 09:23:00,45.0,40.5,30.29,East,92,2.0,3.0,84,0.00,,,0.00,Wunderground v.1.15,2013-10-29 13:23:00,
2013-10-29 09:29:00,45.0,40.5,30.29,East,92,2.0,3.0,84,0.00,,,0.00,Wunderground v.1.15,2013-10-29 13:29:00,
2013-10-29 09:35:00,45.0,40.8,30.29,East,92,2.0,2.0,85,0.00,,,0.00,Wunderground v.1.15,2013-10-29 13:35:00,
2013-10-29 09:41:00,45.1,40.9,30.29,East,92,1.0,3.0,85,0.00,,,0.00,Wunderground v.1.15,2013-10-29 13:41:00,
2013-10-29 09:47:00,45.3,41.4,30.29,East,92,2.0,3.0,86,0.00,,,0.00,Wunderground v.1.15,2013-10-29 13:47:00,
2013-10-29 09:53:00,45.5,41.9,30.30,East,92,1.0,3.0,87,0.00,,,0.00,Wunderground v.1.15,2013-10-29 13:53:00,
2013-10-29 09:59:00,45.6,41.7,30.30,East,96,3.0,5.0,86,0.00,,,0.00,Wunderground v.1.15,2013-10-29 13:59:00,
2013-10-29 10:05:00,45.9,41.9,30.30,East,95,3.0,3.0,86,0.00,,,0.00,Wunderground v.1.15,2013-10-29 14:05:00,
2013-10-29 10:11:00,46.2,42.2,30.30,East,99,3.0,5.0,86,0.00,,,0.00,Wunderground v.1.15,2013-10-29 14:11:00,
2013-10-29 10:17:00,46.4,42.1,30.30,ESE,106,4.0,5.0,85,0.00,,,0.00,Wunderground v.1.15,2013-10-29 14:17:00,
2013-10-29 10:23:00,46.6,42.0,30.30,ESE,106,4.0,4.0,84,0.00,,,0.00,Wunderground v.1.15,2013-10-29 14:23:00,
2013-10-29 10:29:00,46.8,42.2,30.29,ESE,106,3.0,4.0,84,0.00,,,0.00,Wunderground v.1.15,2013-10-29 14:29:00,
2013-10-29 10:35:00,47.1,42.5,30.29,ESE,105,4.0,5.0,84,0.00,,,0.00,Wunderground v.1.15,2013-10-29 14:35:00,
2013-10-29 10:41:00,47.3,42.7,30.29,ESE,106,4.0,4.0,84,0.00,,,0.00,Wunderground v.1.15,2013-10-29 14:41:00,
2013-10-29 10:47:00,47.5,42.9,30.29,ESE,106,4.0,5.0,84,0.00,,,0.00,Wunderground v.1.15,2013-10-29 14:47:00,
2013-10-29 10:53:00,47.7,43.1,30.29,ESE,103,4.0,4.0,84,0.00,,,0.00,Wunderground v.1.15,2013-10-29 14:53:00,
2013-10-29 10:59:00,48.0,43.7,30.29,East,101,4.0,6.0,85,0.00,,,0.00,Wunderground v.1.15,2013-10-29 14:59:00,
2013-10-29 11:05:00,48.3,44.0,30.29,East,92,4.0,7.0,85,0.00,,,0.00,Wunderground v.1.15,2013-10-29 15:05:00,
2013-10-29 11:11:00,48.5,44.2,30.29,East,92,5.0,5.0,85,0.00,,,0.00,Wunderground v.1.15,2013-10-29 15:11:00,
2013-10-29 11:17:00,48.8,44.5,30.29,East,96,4.0,5.0,85,0.00,,,0.00,Wunderground v.1.15,2013-10-29 15:17:00,
2013-10-29 11:23:00,49.1,44.8,30.29,East,96,3.0,5.0,85,0.00,,,0.00,Wunderground v.1.15,2013-10-29 15:23:00,
2013-10-29 11:29:00,49.4,45.1,30.29,East,94,4.0,5.0,85,0.00,,,0.00,Wunderground v.1.15,2013-10-29 15:29:00,
2013-10-29 11:35:00,49.7,45.7,30.29,East,98,4.0,4.0,86,0.00,,,0.00,Wunderground v.1.15,2013-10-29 15:35:00,
2013-10-29 11:41:00,49.9,45.6,30.30,East,101,3.0,3.0,85,0.00,,,0.00,Wunderground v.1.15,2013-10-29 15:41:00,
2013-10-29 11:47:00,50.1,46.1,30.30,East,101,2.0,3.0,86,0.00,,,0.00,Wunderground v.1.15,2013-10-29 15:47:00,
2013-10-29 11:53:00,50.5,46.8,30.30,East,101,2.0,3.0,87,0.00,,,0.00,Wunderground v.1.15,2013-10-29 15:53:00,
2013-10-29 11:59:00,50.8,46.8,30.29,East,101,2.0,3.0,86,0.00,,,0.00,Wunderground v.1.15,2013-10-29 15:59:00,
2013-10-29 12:05:00,51.2,47.5,30.29,East,101,2.0,2.0,87,0.00,,,0.00,Wunderground v.1.15,2013-10-29 16:05:00,
2013-10-29 12:11:00,51.5,47.5,30.29,East,101,2.0,2.0,86,0.00,,,0.00,Wunderground v.1.15,2013-10-29 16:11:00,
2013-10-29 12:17:00,51.9,48.2,30.29,East,101,2.0,2.0,87,0.00,,,0.00,Wunderground v.1.15,2013-10-29 16:17:00,
2013-10-29 12:23:00,52.3,48.2,30.28,East,101,2.0,3.0,86,0.00,,,0.00,Wunderground v.1.15,2013-10-29 16:23:00,
2013-10-29 12:29:00,52.6,48.5,30.28,East,101,2.0,3.0,86,0.00,,,0.00,Wunderground v.1.15,2013-10-29 16:29:00,
2013-10-29 12:35:00,52.9,48.8,30.28,East,101,2.0,2.0,86,0.00,,,0.00,Wunderground v.1.15,2013-10-29 16:35:00,
2013-10-29 12:41:00,53.2,49.1,30.27,East,101,3.0,5.0,86,0.00,,,0.00,Wunderground v.1.15,2013-10-29 16:41:00,
2013-10-29 12:47:00,53.5,49.4,30.27,East,101,3.0,5.0,86,0.00,,,0.00,Wunderground v.1.15,2013-10-29 16:47:00,
2013-10-29 12:53:00,53.6,49.5,30.27,East,101,3.0,5.0,86,0.00,,,0.00,Wunderground v.1.15,2013-10-29 16:53:00,
2013-10-29 12:59:00,53.8,49.7,30.27,East,101,2.0,5.0,86,0.00,,,0.00,Wunderground v.1.15,2013-10-29 16:59:00,
2013-10-29 13:05:00,53.9,49.8,30.27,East,101,2.0,2.0,86,0.00,,,0.00,Wunderground v.1.15,2013-10-29 17:05:00,
2013-10-29 13:11:00,54.0,50.2,30.27,East,101,2.0,2.0,87,0.00,,,0.00,Wunderground v.1.15,2013-10-29 17:11:00,
2013-10-29 13:17:00,54.2,50.4,30.26,East,101,1.0,2.0,87,0.00,,,0.00,Wunderground v.1.15,2013-10-29 17:17:00,
2013-10-29 13:23:00,54.3,50.5,30.27,East,101,2.0,2.0,87,0.00,,,0.00,Wunderground v.1.15,2013-10-29 17:23:00,
2013-10-29 13:29:00,54.5,50.7,30.26,East,101,2.0,6.0,87,0.00,,,0.00,Wunderground v.1.15,2013-10-29 17:29:00,
2013-10-29 13:35:00,54.7,50.9,30.26,East,101,1.0,2.0,87,0.00,,,0.00,Wunderground v.1.15,2013-10-29 17:35:00,
2013-10-29 13:41:00,55.0,51.2,30.25,East,101,1.0,1.0,87,0.00,,,0.00,Wunderground v.1.15,2013-10-29 17:41:00,
2013-10-29 13:47:00,55.1,51.3,30.25,East,101,0.0,2.0,87,0.00,,,0.00,Wunderground v.1.15,2013-10-29 17:47:00,
2013-10-29 13:53:00,55.3,51.2,30.25,East,101,1.0,2.0,86,0.00,,,0.00,Wunderground v.1.15,2013-10-29 17:53:00,
2013-10-29 13:59:00,55.4,51.3,30.26,East,101,0.0,2.0,86,0.00,,,0.00,Wunderground v.1.15,2013-10-29 17:59:00,
2013-10-29 14:05:00,55.5,51.4,30.25,East,101,0.0,0.0,86,0.00,,,0.00,Wunderground v.1.15,2013-10-29 18:05:00,
2013-10-29 14:11:00,55.6,51.5,30.25,East,101,0.0,0.0,86,0.00,,,0.00,Wunderground v.1.15,2013-10-29 18:11:00,
2013-10-29 14:17:00,55.8,51.4,30.24,East,101,0.0,0.0,85,0.00,,,0.00,Wunderground v.1.15,2013-10-29 18:17:00,
2013-10-29 14:23:00,55.9,51.8,30.24,East,101,0.0,2.0,86,0.00,,,0.00,Wunderground v.1.15,2013-10-29 18:23:00,
2013-10-29 14:29:00,56.0,51.9,30.24,East,101,1.0,2.0,86,0.00,,,0.00,Wunderground v.1.15,2013-10-29 18:29:00,
2013-10-29 14:35:00,56.2,52.1,30.23,East,101,0.0,1.0,86,0.00,,,0.00,Wunderground v.1.15,2013-10-29 18:35:00,
2013-10-29 14:41:00,56.2,51.7,30.23,East,101,0.0,0.0,85,0.00,,,0.00,Wunderground v.1.15,2013-10-29 18:41:00,
2013-10-29 14:47:00,56.3,51.8,30.23,East,101,0.0,0.0,85,0.00,,,0.00,Wunderground v.1.15,2013-10-29 18:47:00,
2013-10-29 14:53:00,56.3,52.2,30.22,East,101,0.0,0.0,86,0.00,,,0.00,Wunderground v.1.15,2013-10-29 18:53:00,
2013-10-29 14:59:00,56.4,51.9,30.23,East,101,0.0,0.0,85,0.00,,,0.00,Wunderground v.1.15,2013-10-29 18:59:00,
2013-10-29 15:05:00,56.4,51.9,30.22,East,101,0.0,3.0,85,0.00,,,0.00,Wunderground v.1.15,2013-10-29 19:05:00,
2013-10-29 15:11:00,56.5,52.4,30.22,East,101,1.0,1.0,86,0.00,,,0.00,Wunderground v.1.15,2013-10-29 19:11:00,
2013-10-29 15:17:00,56.6,52.5,30.21,East,101,0.0,1.0,86,0.00,,,0.00,Wunderground v.1.15,2013-10-29 19:17:00,
2013-10-29 15:23:00,56.6,52.5,30.21,East,101,0.0,0.0,86,0.00,,,0.00,Wunderground v.1.15,2013-10-29 19:23:00,
2013-10-29 15:29:00,56.7,52.6,30.21,East,101,1.0,3.0,86,0.00,,,0.00,Wunderground v.1.15,2013-10-29 19:29:00,
2013-10-29 15:35:00,56.8,52.7,30.21,East,101,1.0,2.0,86,0.00,,,0.00,Wunderground v.1.15,2013-10-29 19:35:00,
2013-10-29 15:41:00,56.9,52.8,30.21,East,101,2.0,2.0,86,0.00,,,0.00,Wunderground v.1.15,2013-10-29 19:41:00,
2013-10-29 15:47:00,56.8,52.3,30.20,East,101,2.0,2.0,85,0.00,,,0.00,Wunderground v.1.15,2013-10-29 19:47:00,
2013-10-29 15:53:00,56.9,52.8,30.20,East,101,1.0,3.0,86,0.00,,,0.00,Wunderground v.1.15,2013-10-29 19:53:00,
2013-10-29 15:59:00,57.0,52.9,30.20,East,101,2.0,5.0,86,0.00,,,0.00,Wunderground v.1.15,2013-10-29 19:59:00,
2013-10-29 16:05:00,57.0,52.9,30.20,East,101,2.0,3.0,86,0.00,,,0.00,Wunderground v.1.15,2013-10-29 20:05:00,
2013-10-29 16:11:00,57.1,53.0,30.19,East,101,1.0,1.0,86,0.00,,,0.00,Wunderground v.1.15,2013-10-29 20:11:00,
2013-10-29 16:17:00,57.2,53.0,30.19,East,101,1.0,3.0,86,0.00,,,0.00,Wunderground v.1.15,2013-10-29 20:17:00,
2013-10-29 16:23:00,57.2,53.0,30.19,ESE,105,2.0,3.0,86,0.00,,,0.00,Wunderground v.1.15,2013-10-29 20:23:00,
2013-10-29 16:29:00,57.3,53.1,30.18,ESE,103,3.0,4.0,86,0.00,,,0.00,Wunderground v.1.15,2013-10-29 20:29:00,
2013-10-29 16:35:00,57.4,53.2,30.18,SE,139,3.0,3.0,86,0.00,,,0.00,Wunderground v.1.15,2013-10-29 20:35:00,
2013-10-29 16:41:00,57.6,53.4,30.17,SE,126,3.0,5.0,86,0.00,,,0.00,Wunderground v.1.15,2013-10-29 20:41:00,
2013-10-29 16:47:00,57.7,53.2,30.17,ESE,121,4.0,5.0,85,0.00,,,0.00,Wunderground v.1.15,2013-10-29 20:47:00,
2013-10-29 16:53:00,57.6,53.1,30.17,ESE,114,5.0,7.0,85,0.00,,,0.00,Wunderground v.1.15,2013-10-29 20:53:00,
2013-10-29 16:59:00,57.4,53.2,30.16,East,84,5.0,7.0,86,0.00,,,0.00,Wunderground v.1.15,2013-10-29 20:59:00,
2013-10-29 17:05:00,57.2,53.0,30.16,SE,130,4.0,5.0,86,0.00,,,0.00,Wunderground v.1.15,2013-10-29 21:05:00,
2013-10-29 17:11:00,57.2,53.0,30.15,ESE,123,4.0,4.0,86,0.00,,,0.00,Wunderground v.1.15,2013-10-29 21:11:00,
2013-10-29 17:17:00,57.1,53.0,30.15,ESE,102,3.0,4.0,86,0.00,,,0.00,Wunderground v.1.15,2013-10-29 21:17:00,
2013-10-29 17:23:00,57.1,53.0,30.15,ESE,118,4.0,5.0,86,0.00,,,0.00,Wunderground v.1.15,2013-10-29 21:23:00,
2013-10-29 17:29:00,57.1,53.0,30.16,SE,136,4.0,5.0,86,0.00,,,0.00,Wunderground v.1.15,2013-10-29 21:29:00,
2013-10-29 17:35:00,57.1,53.0,30.16,ESE,117,3.0,4.0,86,0.00,,,0.00,Wunderground v.1.15,2013-10-29 21:35:00,
2013-10-29 17:41:00,56.9,53.1,30.16,SSW,211,4.0,4.0,87,0.00,,,0.00,Wunderground v.1.15,2013-10-29 21:41:00,
2013-10-29 17:47:00,56.8,53.0,30.16,SE,142,3.0,4.0,87,0.00,,,0.00,Wunderground v.1.15,2013-10-29 21:47:00,
2013-10-29 17:53:00,56.7,53.2,30.15,ESE,117,3.0,7.0,88,0.00,,,0.00,Wunderground v.1.15,2013-10-29 21:53:00,
2013-10-29 17:59:00,56.6,53.4,30.16,ESE,112,3.0,7.0,89,0.00,,,0.00,Wunderground v.1.15,2013-10-29 21:59:00,
2013-10-29 18:05:00,56.5,53.3,30.16,ESE,113,2.0,3.0,89,0.00,,,0.00,Wunderground v.1.15,2013-10-29 22:05:00,
2013-10-29 18:11:00,56.5,53.6,30.16,ESE,104,2.0,2.0,90,0.00,,,0.00,Wunderground v.1.15,2013-10-29 22:11:00,
2013-10-29 18:17:00,56.4,53.5,30.15,ESE,104,2.0,2.0,90,0.00,,,0.00,Wunderground v.1.15,2013-10-29 22:17:00,
2013-10-29 18:23:00,56.4,53.5,30.16,ESE,104,1.0,1.0,90,0.00,,,0.00,Wunderground v.1.15,2013-10-29 22:23:00,
2013-10-29 18:29:00,56.3,53.4,30.16,ESE,104,0.0,1.0,90,0.00,,,0.00,Wunderground v.1.15,2013-10-29 22:29:00,
2013-10-29 18:35:00,56.2,53.3,30.16,ESE,104,0.0,0.0,90,0.00,,,0.00,Wunderground v.1.15,2013-10-29 22:35:00,
2013-10-29 18:41:00,56.1,53.2,30.16,ESE,104,0.0,0.0,90,0.00,,,0.00,Wunderground v.1.15,2013-10-29 22:41:00,
2013-10-29 18:47:00,55.9,53.3,30.17,ESE,104,0.0,0.0,91,0.00,,,0.00,Wunderground v.1.15,2013-10-29 22:47:00,
2013-10-29 18:53:00,55.8,53.2,30.17,ESE,104,0.0,3.0,91,0.00,,,0.00,Wunderground v.1.15,2013-10-29 22:53:00,
2013-10-29 18:59:00,55.7,53.1,30.17,ESE,104,0.0,3.0,91,0.00,,,0.00,Wunderground v.1.15,2013-10-29 22:59:00,
2013-10-29 19:05:00,55.5,53.2,30.17,ESE,104,0.0,0.0,92,0.00,,,0.00,Wunderground v.1.15,2013-10-29 23:05:00,
2013-10-29 19:11:00,55.4,53.1,30.18,ESE,104,0.0,0.0,92,0.00,,,0.00,Wunderground v.1.15,2013-10-29 23:11:00,
2013-10-29 19:17:00,55.3,53.0,30.18,ESE,104,0.0,0.0,92,0.00,,,0.00,Wunderground v.1.15,2013-10-29 23:17:00,
2013-10-29 19:23:00,55.2,52.9,30.18,ESE,104,0.0,0.0,92,0.00,,,0.00,Wunderground v.1.15,2013-10-29 23:23:00,
2013-10-29 19:29:00,55.2,53.2,30.17,ESE,104,0.0,0.0,93,0.00,,,0.00,Wunderground v.1.15,2013-10-29 23:29:00,
2013-10-29 19:35:00,55.1,53.1,30.17,ESE,104,0.0,0.0,93,0.00,,,0.00,Wunderground v.1.15,2013-10-29 23:35:00,
2013-10-29 19:41:00,55.1,53.1,30.17,ESE,104,0.0,0.0,93,0.00,,,0.00,Wunderground v.1.15,2013-10-29 23:41:00,
2013-10-29 19:47:00,55.1,53.1,30.17,ESE,104,0.0,0.0,93,0.00,,,0.00,Wunderground v.1.15,2013-10-29 23:47:00,
2013-10-29 19:53:00,55.0,53.0,30.17,ESE,104,0.0,0.0,93,0.00,,,0.00,Wunderground v.1.15,2013-10-29 23:53:00,
2013-10-29 19:59:00,55.0,53.3,30.18,ESE,104,0.0,0.0,94,0.00,,,0.00,Wunderground v.1.15,2013-10-29 23:59:00,
2013-10-29 20:05:00,55.0,53.3,30.17,ESE,104,0.0,0.0,94,0.00,,,0.00,Wunderground v.1.15,2013-10-30 00:05:00,
2013-10-29 20:11:00,54.9,53.2,30.17,ESE,104,0.0,0.0,94,0.00,,,0.00,Wunderground v.1.15,2013-10-30 00:11:00,
2013-10-29 20:17:00,54.9,53.2,30.17,ESE,104,0.0,0.0,94,0.00,,,0.00,Wunderground v.1.15,2013-10-30 00:17:00,
2013-10-29 20:23:00,54.9,53.2,30.17,ESE,104,0.0,0.0,94,0.00,,,0.00,Wunderground v.1.15,2013-10-30 00:23:00,
2013-10-29 20:29:00,54.8,53.1,30.17,ESE,104,0.0,0.0,94,0.00,,,0.00,Wunderground v.1.15,2013-10-30 00:29:00,
2013-10-29 20:35:00,54.8,53.4,30.17,ESE,104,0.0,0.0,95,0.00,,,0.01,Wunderground v.1.15,2013-10-30 00:35:00,
2013-10-29 20:41:00,54.8,53.4,30.17,ESE,104,0.0,0.0,95,0.00,,,0.01,Wunderground v.1.15,2013-10-30 00:41:00,
2013-10-29 20:47:00,54.8,53.4,30.17,ESE,104,0.0,0.0,95,0.00,,,0.01,Wunderground v.1.15,2013-10-30 00:47:00,
2013-10-29 20:53:00,54.9,53.5,30.17,ESE,104,0.0,0.0,95,0.00,,,0.01,Wunderground v.1.15,2013-10-30 00:53:00,
2013-10-29 20:59:00,54.9,53.5,30.16,ESE,104,0.0,0.0,95,0.00,,,0.01,Wunderground v.1.15,2013-10-30 00:59:00,
2013-10-29 21:05:00,54.9,53.5,30.16,ESE,104,0.0,0.0,95,0.00,,,0.01,Wunderground v.1.15,2013-10-30 01:05:00,
2013-10-29 21:11:00,55.0,53.9,30.16,ESE,104,0.0,0.0,96,0.00,,,0.01,Wunderground v.1.15,2013-10-30 01:11:00,
2013-10-29 21:17:00,54.9,53.8,30.16,ESE,104,0.0,0.0,96,0.00,,,0.01,Wunderground v.1.15,2013-10-30 01:17:00,
2013-10-29 21:23:00,54.9,53.8,30.16,ENE,64,0.0,3.0,96,0.00,,,0.01,Wunderground v.1.15,2013-10-30 01:23:00,
2013-10-29 21:29:00,54.9,53.8,30.17,ENE,64,1.0,3.0,96,0.00,,,0.01,Wunderground v.1.15,2013-10-30 01:29:00,
2013-10-29 21:35:00,54.9,53.8,30.16,ENE,65,1.0,1.0,96,0.00,,,0.01,Wunderground v.1.15,2013-10-30 01:35:00,
2013-10-29 21:41:00,55.0,53.9,30.16,East,90,1.0,2.0,96,0.00,,,0.01,Wunderground v.1.15,2013-10-30 01:41:00,
2013-10-29 21:47:00,55.0,53.9,30.15,East,89,2.0,3.0,96,0.00,,,0.02,Wunderground v.1.15,2013-10-30 01:47:00,
2013-10-29 21:53:00,55.0,53.9,30.15,East,90,2.0,2.0,96,0.00,,,0.02,Wunderground v.1.15,2013-10-30 01:53:00,
2013-10-29 21:59:00,55.0,54.2,30.15,East,88,3.0,6.0,97,0.00,,,0.02,Wunderground v.1.15,2013-10-30 01:59:00,
2013-10-29 22:05:00,55.0,54.2,30.15,East,80,3.0,3.0,97,0.00,,,0.02,Wunderground v.1.15,2013-10-30 02:05:00,
2013-10-29 22:11:00,55.0,54.2,30.15,East,86,3.0,5.0,97,0.00,,,0.02,Wunderground v.1.15,2013-10-30 02:11:00,
2013-10-29 22:17:00,55.0,54.2,30.14,East,79,3.0,5.0,97,0.00,,,0.02,Wunderground v.1.15,2013-10-30 02:17:00,
2013-10-29 22:23:00,55.0,54.2,30.14,East,88,2.0,6.0,97,0.00,,,0.02,Wunderground v.1.15,2013-10-30 02:23:00,
2013-10-29 22:29:00,55.0,54.2,30.14,East,94,1.0,6.0,97,0.00,,,0.02,Wunderground v.1.15,2013-10-30 02:29:00,
2013-10-29 22:35:00,55.0,54.2,30.14,ESE,108,2.0,2.0,97,0.00,,,0.02,Wunderground v.1.15,2013-10-30 02:35:00,
2013-10-29 22:41:00,55.0,54.2,30.14,East,90,2.0,2.0,97,0.00,,,0.02,Wunderground v.1.15,2013-10-30 02:41:00,
2013-10-29 22:47:00,55.0,54.2,30.14,East,84,3.0,5.0,97,0.00,,,0.02,Wunderground v.1.15,2013-10-30 02:47:00,
2013-10-29 22:53:00,55.0,54.2,30.14,East,80,2.0,2.0,97,0.00,,,0.02,Wunderground v.1.15,2013-10-30 02:53:00,
2013-10-29 22:59:00,55.1,54.3,30.14,East,82,3.0,7.0,97,0.00,,,0.02,Wunderground v.1.15,2013-10-30 02:59:00,
2013-10-29 23:05:00,55.0,54.2,30.14,East,87,4.0,5.0,97,0.00,,,0.02,Wunderground v.1.15,2013-10-30 03:05:00,
2013-10-29 23:11:00,55.0,54.2,30.14,ESE,111,4.0,8.0,97,0.00,,,0.02,Wunderground v.1.15,2013-10-30 03:11:00,
2013-10-29 23:17:00,55.0,54.2,30.14,SE,128,4.0,8.0,97,0.00,,,0.02,Wunderground v.1.15,2013-10-30 03:17:00,
2013-10-29 23:23:00,55.0,54.2,30.14,ESE,105,4.0,4.0,97,0.00,,,0.02,Wunderground v.1.15,2013-10-30 03:23:00,
2013-10-29 23:29:00,55.0,54.2,30.14,ESE,105,4.0,4.0,97,0.00,,,0.02,Wunderground v.1.15,2013-10-30 03:29:00,
2013-10-29 23:35:00,55.0,54.2,30.14,ESE,104,3.0,4.0,97,0.00,,,0.02,Wunderground v.1.15,2013-10-30 03:35:00,
2013-10-29 23:41:00,55.1,54.3,30.13,ESE,122,3.0,3.0,97,0.00,,,0.02,Wunderground v.1.15,2013-10-30 03:41:00,
2013-10-29 23:47:00,55.1,54.3,30.13,ESE,121,4.0,5.0,97,0.00,,,0.02,Wunderground v.1.15,2013-10-30 03:47:00,
2013-10-29 23:53:00,55.1,54.3,30.13,SE,130,4.0,7.0,97,0.00,,,0.02,Wunderground v.1.15,2013-10-30 03:53:00,
2013-10-29 23:59:00,55.1,54.3,30.13,SE,128,5.0,7.0,97,0.00,,,0.00,Wunderground v.1.15,2013-10-30 03:59:00,